sat.trackr.live / text

‹ back to catalog

KUIPER-00543

NORAD 69612 · 2026-140W

PAYLOAD ACTIVE UNKNOWN

§ Identity

Operator
Country
US
Launch date
2026-06-17
Launch site
FRGUI
Launch vehicle
Mass (kg)
RCS (m²)

External: N2YO · Heavens-Above · Gunter

§ Orbital elements

Epoch: 2026-09-20T04:00:03.000096Z

Period
96.55 min
Inclination
51.8987°
Eccentricity
0.0003169
Mean motion
14.91394533 rev/d
Perigee alt
591.4 km
Apogee alt
595.8 km
Semi-major
6,971.7 km
B*
-3.6597e-3
RAAN
303.5061°
Arg perigee
213.8424°
Mean anomaly
294.5003°
Rev number
456

§ Raw data

KUIPER-005431 69612U 26140W   26263.16670139 -.00036966  00000+0 -36597-2 0  99922 69612  51.8987 303.5061 0003169 213.8424 294.5003 14.91394533  4565

JSON: /api/v1/satellites/69612 · /tle

For live sub-satellite position, see the globe view (requires WebGL).

§ Visibility from observer

Set your observer location to see the next 7 days of passes ≥ 10°. The values pass through the URL so the page stays shareable.

No JS? Fill the form by hand. The geolocation button needs JavaScript.